Location: Anne Acres
(38.7004°N, 75.0827°W)
Time: 17:34:32
(UTC+00:00)

Altair - Pass Details

Date: 08 November 2024
Orbit: 1501 x 1682 km, 47.2° (Epoch: 13 December)

Event Time Altitude Azimuth Distance (km) Brightness Sun altitude
Rises 01:40:25 0° 288° (WNW) 4,689 10.8 -44.4°
Reaches altitude 10° 01:45:16 10° 266° (W) 3,734 10.0 -45.3°
Maximum altitude 01:49:53 15° 236° (WSW) 3,397 9.5 -46.2°
Enters shadow 01:54:25 10° 207° (SSW) 3,771 9.6 -47.0°
